N2KH KBOS-KPHL

Flight info

Callsign N2KH
Flight time N/A
Altitude 34000
Route SSOXS7 SSOXS Q167 RIFLE Q439 BRIGS JIIMS4
Aircraft C700/M-VGDW/C

Departure

Time 2026-05-06 01:14
Airport Boston Logan International Airport (KBOS)

Arrival

Time N/A
Airport Philadelphia International Airport (KPHL)
Time Latitude Longitude Altitude Speed Heading
2026-05-06 00:57 42.37464 -71.02195 20 ft 0 kts 314°
2026-05-06 00:58 42.37464 -71.02194 20 ft 0 kts 314°
2026-05-06 01:04 42.37463 -71.02194 20 ft 0 kts 314°
2026-05-06 01:06 42.37453 -71.02177 -8 ft 2 kts 306°
2026-05-06 01:06 42.37444 -71.02169 40 ft 2 kts
2026-05-06 01:06 42.37435 -71.02176 21 ft 2 kts 77°
2026-05-06 01:06 42.37434 -71.02183 28 ft 0 kts 61°
2026-05-06 01:07 42.37465 -71.02152 35 ft 12 kts 36°
2026-05-06 01:07 42.37471 -71.02058 21 ft 14 kts 128°
2026-05-06 01:08 42.37408 -71.01975 20 ft 0 kts 139°
2026-05-06 01:08 42.37401 -71.01964 20 ft 11 kts 133°
2026-05-06 01:08 42.37276 -71.01814 20 ft 30 kts 142°
2026-05-06 01:09 42.37115 -71.01583 21 ft 37 kts 135°
2026-05-06 01:09 42.36958 -71.01371 21 ft 24 kts 135°
2026-05-06 01:09 42.36926 -71.01242 20 ft 16 kts 77°
2026-05-06 01:09 42.36993 -71.01111 21 ft 19 kts 33°
2026-05-06 01:10 42.37118 -71.01026 20 ft 12 kts 26°
2026-05-06 01:10 42.37199 -71.00974 21 ft 10 kts 25°
2026-05-06 01:10 42.37224 -71.00957 20 ft 13 kts 25°
2026-05-06 01:10 42.37258 -71.00935 20 ft 0 kts 26°
2026-05-06 01:12 42.37299 -71.00908 20 ft 23 kts 23°
2026-05-06 01:12 42.37520 -71.00801 20 ft 43 kts 20°
2026-05-06 01:12 42.37782 -71.00674 20 ft 22 kts 20°
2026-05-06 01:12 42.37838 -71.00604 20 ft 3 kts 98°
2026-05-06 01:13 42.37831 -71.00554 21 ft 7 kts 101°
2026-05-06 01:13 42.37831 -71.00551 21 ft 0 kts 102°
2026-05-06 01:13 42.37829 -71.00540 20 ft 5 kts 102°
2026-05-06 01:13 42.37800 -71.00471 20 ft 12 kts 167°
2026-05-06 01:14 42.37442 -71.00651 22 ft 92 kts 199°
2026-05-06 01:14 42.36604 -71.01048 182 ft 152 kts 199°
2026-05-06 01:14 42.35501 -71.01594 764 ft 187 kts 200°
2026-05-06 01:15 42.34123 -71.01882 1276 ft 210 kts 180°
2026-05-06 01:15 42.32951 -71.00962 1678 ft 213 kts 143°
2026-05-06 01:15 42.32224 -70.98968 2174 ft 258 kts 120°
2026-05-06 01:15 42.31628 -70.96537 2709 ft 286 kts 113°
2026-05-06 01:16 42.31523 -70.93751 3204 ft 308 kts 88°
2026-05-06 01:16 42.31895 -70.90906 3700 ft 307 kts 80°
2026-05-06 01:16 42.32372 -70.88095 4184 ft 307 kts 80°
2026-05-06 01:16 42.32753 -70.85267 4643 ft 306 kts 84°
2026-05-06 01:17 42.33038 -70.82403 5125 ft 309 kts 89°
2026-05-06 01:17 42.32890 -70.79567 5593 ft 306 kts 105°
2026-05-06 01:17 42.32250 -70.76873 6189 ft 297 kts 120°
2026-05-06 01:17 42.31368 -70.74333 6809 ft 301 kts 121°
2026-05-06 01:18 42.30434 -70.71801 7397 ft 300 kts 128°
2026-05-06 01:18 42.29151 -70.69633 8009 ft 293 kts 141°
2026-05-06 01:18 42.27585 -70.67935 8634 ft 286 kts 154°
2026-05-06 01:18 42.25822 -70.66760 9275 ft 281 kts 166°
2026-05-06 01:19 42.23961 -70.65918 9921 ft 284 kts 167°
2026-05-06 01:19 42.22078 -70.65051 10514 ft 288 kts 167°
2026-05-06 01:19 42.20201 -70.64184 11119 ft 290 kts 167°
2026-05-06 01:19 42.18287 -70.63307 11760 ft 292 kts 167°
2026-05-06 01:20 42.16277 -70.62445 12383 ft 316 kts 171°
2026-05-06 01:20 42.14013 -70.62080 13052 ft 340 kts 184°
2026-05-06 01:20 42.11584 -70.62420 13727 ft 362 kts 196°
2026-05-06 01:20 42.09138 -70.63425 14339 ft 372 kts 201°
2026-05-06 01:21 42.06663 -70.64531 14945 ft 377 kts 201°
2026-05-06 01:21 42.04153 -70.65640 15558 ft 382 kts 201°
2026-05-06 01:21 42.01606 -70.66757 16192 ft 387 kts 201°
2026-05-06 01:21 41.99033 -70.67887 16857 ft 391 kts 201°
2026-05-06 01:22 41.96472 -70.69014 17491 ft 395 kts 201°
2026-05-06 01:22 41.93844 -70.70169 18157 ft 400 kts 201°
2026-05-06 01:22 41.91185 -70.71335 18751 ft 404 kts 201°
2026-05-06 01:22 41.88497 -70.72511 19342 ft 408 kts 201°
2026-05-06 01:23 41.85787 -70.73698 19944 ft 411 kts 201°
2026-05-06 01:23 41.83118 -70.75093 20551 ft 413 kts 208°
2026-05-06 01:23 41.80592 -70.76949 21179 ft 416 kts 212°
2026-05-06 01:23 41.78056 -70.78865 21807 ft 420 kts 212°
2026-05-06 01:24 41.75523 -70.80757 22462 ft 425 kts 212°
2026-05-06 01:24 41.72930 -70.82699 23137 ft 430 kts 213°
2026-05-06 01:24 41.70305 -70.84673 23778 ft 435 kts 213°
2026-05-06 01:24 41.67651 -70.86666 24353 ft 440 kts 213°
2026-05-06 01:25 41.64964 -70.88674 24950 ft 445 kts 213°
2026-05-06 01:25 41.62236 -70.90710 25548 ft 452 kts 213°
2026-05-06 01:25 41.59480 -70.92775 26146 ft 457 kts 213°
2026-05-06 01:25 41.56817 -70.95096 26765 ft 457 kts 221°
2026-05-06 01:26 41.54451 -70.97845 27392 ft 457 kts 228°
2026-05-06 01:26 41.52356 -71.01029 28042 ft 457 kts 236°
2026-05-06 01:26 41.50555 -71.04523 28700 ft 458 kts 240°
2026-05-06 01:26 41.48785 -71.08069 29390 ft 461 kts 240°
2026-05-06 01:27 41.46993 -71.11623 30065 ft 463 kts 240°
2026-05-06 01:27 41.45203 -71.15192 30682 ft 464 kts 240°
2026-05-06 01:27 41.43409 -71.18774 31267 ft 465 kts 240°
2026-05-06 01:27 41.41611 -71.22349 31900 ft 464 kts 240°
2026-05-06 01:28 41.39835 -71.25869 32535 ft 464 kts 240°
2026-05-06 01:28 41.38040 -71.29428 33192 ft 462 kts 240°
2026-05-06 01:28 41.36254 -71.32970 33859 ft 460 kts 240°
2026-05-06 01:28 41.34455 -71.36539 33959 ft 470 kts 240°
2026-05-06 01:29 41.30763 -71.43842 33977 ft 475 kts 240°
2026-05-06 01:29 41.27107 -71.51051 33974 ft 467 kts 240°
2026-05-06 01:30 41.23489 -71.58187 33982 ft 470 kts 240°
2026-05-06 01:30 41.19825 -71.65380 33689 ft 471 kts 240°
2026-05-06 01:31 41.18001 -71.68954 33419 ft 463 kts 240°
2026-05-06 01:31 41.17313 -71.70300 33313 ft 459 kts 240°
2026-05-06 01:31 41.15995 -71.72878 33102 ft 449 kts 240°
2026-05-06 01:32 41.14253 -71.76291 32815 ft 446 kts 240°
2026-05-06 01:32 41.12517 -71.79708 32553 ft 447 kts 240°
2026-05-06 01:32 41.10804 -71.83093 32299 ft 449 kts 240°
2026-05-06 01:32 41.09057 -71.86525 32044 ft 448 kts 240°
2026-05-06 01:33 41.07314 -71.89937 31787 ft 445 kts 240°
2026-05-06 01:33 41.05588 -71.93318 31535 ft 440 kts 239°
2026-05-06 01:33 41.03902 -71.96663 31277 ft 433 kts 242°
2026-05-06 01:33 41.02513 -72.00153 31022 ft 425 kts 248°
2026-05-06 01:34 41.01278 -72.03707 30777 ft 425 kts 248°
2026-05-06 01:34 41.00027 -72.07249 30532 ft 425 kts 248°
2026-05-06 01:34 40.98787 -72.10737 30291 ft 425 kts 248°
2026-05-06 01:34 40.97537 -72.14282 30051 ft 425 kts 248°
2026-05-06 01:35 40.96292 -72.17818 29771 ft 423 kts 248°
2026-05-06 01:35 40.95045 -72.21339 29484 ft 420 kts 247°
2026-05-06 01:35 40.93807 -72.24824 29209 ft 418 kts 247°
2026-05-06 01:35 40.92549 -72.28271 28926 ft 415 kts 244°
2026-05-06 01:36 40.90995 -72.31478 28652 ft 415 kts 236°
2026-05-06 01:36 40.89125 -72.34377 28378 ft 415 kts 229°
2026-05-06 01:36 40.87073 -72.37047 28113 ft 413 kts 227°
2026-05-06 01:36 40.85060 -72.39677 27851 ft 412 kts 228°
2026-05-06 01:37 40.83027 -72.42346 27578 ft 412 kts 228°
2026-05-06 01:37 40.80990 -72.45004 27320 ft 411 kts 228°
2026-05-06 01:37 40.78858 -72.47526 27063 ft 413 kts 223°
2026-05-06 01:37 40.76633 -72.49906 26810 ft 411 kts 223°
2026-05-06 01:38 40.74437 -72.52296 26558 ft 408 kts 223°
2026-05-06 01:38 40.72254 -72.54679 26296 ft 406 kts 223°
2026-05-06 01:38 40.70106 -72.57004 26051 ft 404 kts 223°
2026-05-06 01:38 40.68029 -72.59458 25803 ft 399 kts 228°
2026-05-06 01:39 40.66078 -72.62052 25568 ft 397 kts 227°
2026-05-06 01:39 40.64119 -72.64602 25321 ft 395 kts 227°
2026-05-06 01:39 40.62164 -72.67138 25087 ft 393 kts 227°
2026-05-06 01:39 40.60230 -72.69671 24844 ft 392 kts 227°
2026-05-06 01:40 40.58306 -72.72195 24613 ft 390 kts 227°
2026-05-06 01:40 40.56382 -72.74705 24375 ft 389 kts 227°
2026-05-06 01:40 40.54464 -72.77201 24149 ft 387 kts 227°
2026-05-06 01:40 40.52552 -72.79688 23919 ft 386 kts 227°
2026-05-06 01:41 40.50613 -72.82057 23688 ft 385 kts 225°
2026-05-06 01:41 40.48637 -72.84432 23444 ft 384 kts 225°
2026-05-06 01:41 40.46674 -72.86802 23164 ft 383 kts 225°
2026-05-06 01:41 40.44721 -72.89166 22895 ft 381 kts 225°
2026-05-06 01:42 40.42773 -72.91516 22627 ft 380 kts 225°
2026-05-06 01:42 40.40833 -72.93849 22370 ft 378 kts 225°
2026-05-06 01:42 40.38901 -72.96175 22107 ft 375 kts 225°
2026-05-06 01:42 40.36985 -72.98479 21846 ft 372 kts 225°
2026-05-06 01:43 40.35108 -73.00736 21591 ft 369 kts 225°
2026-05-06 01:43 40.33220 -73.03001 21346 ft 367 kts 225°
2026-05-06 01:43 40.31345 -73.05252 21092 ft 365 kts 225°
2026-05-06 01:43 40.29474 -73.07496 20823 ft 365 kts 224°
2026-05-06 01:44 40.27601 -73.09741 20566 ft 365 kts 224°
2026-05-06 01:44 40.25722 -73.11990 20329 ft 366 kts 224°
2026-05-06 01:44 40.23849 -73.14230 20085 ft 364 kts 224°
2026-05-06 01:44 40.21995 -73.16448 19993 ft 357 kts 224°
2026-05-06 01:45 40.20167 -73.18635 19990 ft 356 kts 224°
2026-05-06 01:45 40.18326 -73.20835 20001 ft 360 kts 224°
2026-05-06 01:45 40.16493 -73.23021 20006 ft 363 kts 224°
2026-05-06 01:45 40.14626 -73.25247 19995 ft 363 kts 224°
2026-05-06 01:46 40.12762 -73.27468 19996 ft 362 kts 224°
2026-05-06 01:46 40.10904 -73.29680 19996 ft 361 kts 224°
2026-05-06 01:46 40.09046 -73.31890 20005 ft 361 kts 224°
2026-05-06 01:46 40.07191 -73.34093 20006 ft 360 kts 224°
2026-05-06 01:47 40.05339 -73.36292 20003 ft 360 kts 224°
2026-05-06 01:47 40.03489 -73.38486 20006 ft 359 kts 224°
2026-05-06 01:47 40.01663 -73.40651 20005 ft 360 kts 224°
2026-05-06 01:47 39.99811 -73.42845 20006 ft 360 kts 224°
2026-05-06 01:48 39.97956 -73.45040 20006 ft 360 kts 224°
2026-05-06 01:48 39.96099 -73.47237 20014 ft 361 kts 224°
2026-05-06 01:48 39.94239 -73.49435 20015 ft 361 kts 224°
2026-05-06 01:48 39.92380 -73.51631 19998 ft 361 kts 224°
2026-05-06 01:49 39.90525 -73.53843 19998 ft 361 kts 225°
2026-05-06 01:49 39.88877 -73.56304 20005 ft 361 kts 232°
2026-05-06 01:49 39.87081 -73.59184 20006 ft 361 kts 231°
2026-05-06 01:49 39.85483 -73.61698 20007 ft 361 kts 231°
2026-05-06 01:50 39.83889 -73.64220 20006 ft 361 kts 231°
2026-05-06 01:50 39.82325 -73.66710 20012 ft 359 kts 232°
2026-05-06 01:50 39.80749 -73.69212 20011 ft 355 kts 231°
2026-05-06 01:50 39.79185 -73.71687 20008 ft 354 kts 231°
2026-05-06 01:51 39.77616 -73.74167 20011 ft 356 kts 231°
2026-05-06 01:51 39.76044 -73.76654 20015 ft 357 kts 231°
2026-05-06 01:51 39.74463 -73.79153 20007 ft 359 kts 231°
2026-05-06 01:51 39.72871 -73.81665 20004 ft 361 kts 231°
2026-05-06 01:52 39.71279 -73.84177 20004 ft 360 kts 231°
2026-05-06 01:52 39.69688 -73.86684 20003 ft 359 kts 231°
2026-05-06 01:52 39.68102 -73.89182 20002 ft 358 kts 231°
2026-05-06 01:52 39.66542 -73.91636 20001 ft 357 kts 231°
2026-05-06 01:53 39.64961 -73.94123 19986 ft 357 kts 231°
2026-05-06 01:53 39.63379 -73.96609 19986 ft 358 kts 231°
2026-05-06 01:53 39.61793 -73.99099 19996 ft 358 kts 231°
2026-05-06 01:53 39.60203 -74.01592 20003 ft 358 kts 231°
2026-05-06 01:54 39.58624 -74.04067 20004 ft 355 kts 231°
2026-05-06 01:54 39.57058 -74.06519 20001 ft 352 kts 231°
2026-05-06 01:54 39.55526 -74.08997 19971 ft 353 kts 235°
2026-05-06 01:54 39.54267 -74.11714 19629 ft 360 kts 243°
2026-05-06 01:55 39.53317 -74.14700 19270 ft 357 kts 251°
2026-05-06 01:55 39.52729 -74.17805 18912 ft 353 kts 258°
2026-05-06 01:55 39.52504 -74.20954 18556 ft 350 kts 266°
2026-05-06 01:55 39.52560 -74.24088 18191 ft 347 kts 269°
2026-05-06 01:56 39.52622 -74.27202 17776 ft 345 kts 269°
2026-05-06 01:56 39.52673 -74.30302 17391 ft 344 kts 269°
2026-05-06 01:56 39.52730 -74.33400 17001 ft 344 kts 269°
2026-05-06 01:56 39.52790 -74.36496 16620 ft 344 kts 268°
2026-05-06 01:57 39.52847 -74.39548 16245 ft 344 kts 268°
2026-05-06 01:57 39.52902 -74.42628 16062 ft 338 kts 268°
2026-05-06 01:57 39.52956 -74.45643 16056 ft 334 kts 268°
2026-05-06 01:57 39.53007 -74.48678 16061 ft 340 kts 268°
2026-05-06 01:58 39.53059 -74.51763 16064 ft 343 kts 268°
2026-05-06 01:58 39.53113 -74.54854 16064 ft 343 kts 268°
2026-05-06 01:58 39.53165 -74.57941 16064 ft 342 kts 268°
2026-05-06 01:58 39.53215 -74.61019 16063 ft 341 kts 268°
2026-05-06 01:59 39.53264 -74.64090 16062 ft 341 kts 268°
2026-05-06 01:59 39.53313 -74.67152 16061 ft 340 kts 268°
2026-05-06 01:59 39.53361 -74.70172 16059 ft 340 kts 268°
2026-05-06 01:59 39.53407 -74.73235 16058 ft 341 kts 268°
2026-05-06 02:00 39.53454 -74.76307 16055 ft 341 kts 268°
2026-05-06 02:00 39.53503 -74.79384 16051 ft 342 kts 268°
2026-05-06 02:00 39.53553 -74.82465 16050 ft 342 kts 268°
2026-05-06 02:00 39.53601 -74.85549 16048 ft 343 kts 268°
2026-05-06 02:01 39.53686 -74.88638 16037 ft 345 kts 272°
2026-05-06 02:01 39.54121 -74.91701 16034 ft 348 kts 281°
2026-05-06 02:01 39.54939 -74.94660 16029 ft 351 kts 290°
2026-05-06 02:01 39.56112 -74.97396 16021 ft 354 kts 299°
2026-05-06 02:02 39.57653 -74.99907 16020 ft 359 kts 308°
2026-05-06 02:02 39.59522 -75.02076 16009 ft 364 kts 317°
2026-05-06 02:02 39.61585 -75.03986 16017 ft 365 kts 319°
2026-05-06 02:02 39.63647 -75.05907 16027 ft 366 kts 319°
2026-05-06 02:03 39.65790 -75.07771 15670 ft 379 kts 328°
2026-05-06 02:03 39.68352 -75.08740 15282 ft 389 kts 349°
2026-05-06 02:03 39.71051 -75.08509 14896 ft 392 kts 11°